Asheville, NC

6:35 PM EDT on May 28, 2017 (GMT -0400)
Asheville Regional

Weather History for KAVL - May, 2013

Change the Weather History Date:

Tuesday, May 28, 2013

  Actual Average Record
Temperature  
Mean Temperature 68 °F 66 °F  
Max Temperature 81 °F 77 °F 91 °F (1941)
Min Temperature 55 °F 55 °F 35 °F (1961)
Degree Days  
Heating Degree Days 0 2  
Month to date heating degree days 139 105  
Since 1 July heating degree days 4077 4177  
Cooling Degree Days 3 3  
Month to date cooling degree days 32 44  
Year to date cooling degree days 37 52  
Growing Degree Days 18 (Base 50)    
Moisture  
Dew Point 57 °F    
Average Humidity 69    
Maximum Humidity 93    
Minimum Humidity 45    
Precipitation  
Precipitation 0.00 in 0.13 in 2.78 in (1976)
Month to date precipitation 7.78 3.28  
Year to date precipitation 29.12 17.87  
Snow  
Snow 0.00 in 0.00 in 0.00 in ()
Month to date snowfall 0.0 0.0  
Since 1 July snowfall 0.5 9.9  
Snow Depth 0.00 in    
Sea Level Pressure  
Sea Level Pressure 30.17 in    
Wind  
Wind Speed 7 mph (SSE)    
Max Wind Speed 18 mph    
Max Gust Speed 24 mph    
Visibility 10 miles    
Events      
T = Trace of Precipitation, MM = Missing Value Source: NWS Daily Summary

Daily Weather History Graph

Daily Weather History Graph

Search for Another Location

Airport or City:

Trip Planner

Search our weather history database for the weather conditions in past years. The results will help you decide how hot, cold, wet, or windy it might be!

Date:

Astronomy

May. 28, 2013 Rise Set
Actual Time 6:17 AM EDT 8:37 PM EDT
Civil Twilight 5:48 AM EDT 9:06 PM EDT
Nautical Twilight 5:12 AM EDT 9:42 PM EDT
Astronomical Twilight 4:33 AM EDT 10:22 PM EDT
Moon No Moon Rise 10:01 AM EDT
Length of Visible Light 15h 18m
Length of Day
14h 19m
Waning Gibbous, 83% of the Moon is Illuminated
May 28
Waning Gibbous
May 31
Last Quarter
Jun 8
New
Jun 16
First Quarter
Jun 23
Full

Hourly Weather History & Observations

Time (EDT) Temp. Heat Index Dew Point Humidity Pressure Visibility Wind Dir Wind Speed Gust Speed Precip Events Conditions
12:54 AM 61.0 °F - 55.9 °F 83% 30.18 in 10.0 mi Calm Calm - N/A   Clear
1:54 AM 59.0 °F - 55.9 °F 90% 30.18 in 10.0 mi Calm Calm - N/A   Clear
2:54 AM 57.0 °F - 55.0 °F 93% 30.16 in 10.0 mi South 3.5 mph - N/A   Clear
3:54 AM 57.0 °F - 55.9 °F 96% 30.16 in 9.0 mi Calm Calm - N/A   Clear
4:54 AM 55.0 °F - 54.0 °F 96% 30.16 in 8.0 mi Calm Calm - N/A   Clear
5:54 AM 57.0 °F - 55.0 °F 93% 30.17 in 10.0 mi SSE 5.8 mph - N/A   Clear
6:54 AM 59.0 °F - 55.9 °F 90% 30.19 in 10.0 mi Calm Calm - N/A   Clear
7:54 AM 63.0 °F - 57.0 °F 81% 30.20 in 10.0 mi SE 4.6 mph - N/A   Clear
8:54 AM 66.0 °F - 57.9 °F 75% 30.20 in 10.0 mi SSE 5.8 mph - N/A   Clear
9:54 AM 70.0 °F - 57.9 °F 65% 30.20 in 10.0 mi SSE 6.9 mph - N/A   Clear
10:54 AM 72.0 °F - 59.0 °F 64% 30.20 in 10.0 mi SSE 4.6 mph - 0.01 in   Clear
11:54 AM 75.9 °F - 57.9 °F 54% 30.19 in 10.0 mi SE 6.9 mph - N/A   Clear
12:54 PM 78.1 °F - 55.0 °F 45% 30.18 in 10.0 mi SSE 9.2 mph - N/A   Clear
1:54 PM 79.0 °F - 55.9 °F 45% 30.17 in 10.0 mi SSE 12.7 mph 18.4 mph N/A   Partly Cloudy
2:54 PM 80.1 °F 80.4 °F 57.0 °F 45% 30.16 in 10.0 mi South 12.7 mph 21.9 mph N/A   Partly Cloudy
3:54 PM 78.1 °F - 57.0 °F 48% 30.15 in 10.0 mi SSW 12.7 mph 21.9 mph N/A   Partly Cloudy
4:54 PM 78.1 °F - 57.9 °F 50% 30.16 in 10.0 mi South 17.3 mph 24.2 mph N/A   Clear
5:54 PM 75.9 °F - 57.0 °F 52% 30.15 in 10.0 mi South 15.0 mph - N/A   Clear
6:54 PM 75.0 °F - 57.0 °F 53% 30.14 in 10.0 mi South 16.1 mph - N/A   Clear
7:54 PM 73.0 °F - 57.0 °F 57% 30.15 in 10.0 mi South 12.7 mph - N/A   Clear
8:54 PM 69.1 °F - 59.0 °F 70% 30.16 in 10.0 mi South 9.2 mph - N/A   Clear
9:54 PM 68.0 °F - 59.0 °F 73% 30.17 in 10.0 mi South 6.9 mph - N/A   Clear
10:54 PM 66.0 °F - 59.0 °F 78% 30.18 in 10.0 mi Calm Calm - N/A   Clear
11:54 PM 63.0 °F - 59.0 °F 87% 30.17 in 10.0 mi Calm Calm - N/A   Clear